Location: Goettingen
(51.5300°N, 9.9433°E)
Time: 05:55:54
(UTC+02:00)

ISS - Pass Details

Date: 03 April 2020
Orbit: 417 x 423 km, 51.6° (Epoch: 29 March)

Event Time Altitude Azimuth Distance (km) Brightness Sun altitude
Rises 20:59:07 0° 283° (WNW) 2,362 2.1 -10.0°
Reaches altitude 10° 21:01:27 10° 269° (W) 1,496 0.2 -10.3°
Maximum altitude 21:04:14 24° 213° (SSW) 902 -2.0 -10.7°
Enters shadow 21:06:59 10° 157° (SSE) 1,482 -1.4 -11.1°
